TEJ604 SCEL-MDPC

Flight info

Callsign TEJ604
Flight time N/A
Altitude 36000
Route DCT DONTI UT131 ATEDA UL302 JCL UL305 TAP UL342 PLG UM779 UGALU DCT UGOSA DCT TIPGA DCT AMBAS DCT VESKA VESKA1W
Aircraft B38M/M-SDE1FGHILORVWXY/HB1

Departure

Time 2026-05-05 07:19
Airport Comodoro Arturo Merino Benítez International Airport (SCEL)

Arrival

Time N/A
Airport Punta Cana International Airport (MDPC)
Time Latitude Longitude Altitude Speed Heading
2026-05-05 07:01 -33.40093 -70.79053 1580 ft 4 kts
2026-05-05 07:01 -33.40115 -70.79063 1585 ft 4 kts 50°
2026-05-05 07:01 -33.40122 -70.79082 1585 ft 0 kts 87°
2026-05-05 07:05 -33.40122 -70.79080 1582 ft 1 kts 87°
2026-05-05 07:05 -33.40121 -70.79054 1566 ft 6 kts 87°
2026-05-05 07:05 -33.40118 -70.78981 1566 ft 11 kts 88°
2026-05-05 07:05 -33.40103 -70.78886 1566 ft 12 kts 51°
2026-05-05 07:06 -33.40024 -70.78863 1566 ft 13 kts 358°
2026-05-05 07:06 -33.39934 -70.78869 1566 ft 13 kts 356°
2026-05-05 07:06 -33.39838 -70.78876 1567 ft 14 kts 358°
2026-05-05 07:06 -33.39737 -70.78880 1567 ft 15 kts 358°
2026-05-05 07:07 -33.39631 -70.78885 1567 ft 16 kts 358°
2026-05-05 07:07 -33.39521 -70.78891 1567 ft 16 kts 355°
2026-05-05 07:07 -33.39405 -70.78898 1567 ft 16 kts 359°
2026-05-05 07:07 -33.39316 -70.78914 1567 ft 12 kts 315°
2026-05-05 07:08 -33.39309 -70.79010 1567 ft 12 kts 268°
2026-05-05 07:08 -33.39313 -70.79116 1567 ft 13 kts 267°
2026-05-05 07:08 -33.39317 -70.79229 1567 ft 14 kts 267°
2026-05-05 07:08 -33.39321 -70.79349 1567 ft 15 kts 267°
2026-05-05 07:09 -33.39326 -70.79476 1567 ft 16 kts 267°
2026-05-05 07:09 -33.39332 -70.79608 1567 ft 16 kts 267°
2026-05-05 07:09 -33.39338 -70.79745 1567 ft 17 kts 267°
2026-05-05 07:09 -33.39344 -70.79885 1567 ft 17 kts 268°
2026-05-05 07:10 -33.39316 -70.80017 1568 ft 17 kts 311°
2026-05-05 07:10 -33.39211 -70.80061 1569 ft 17 kts 357°
2026-05-05 07:10 -33.39093 -70.80068 1569 ft 17 kts 357°
2026-05-05 07:10 -33.38972 -70.80075 1569 ft 18 kts 357°
2026-05-05 07:11 -33.38849 -70.80081 1569 ft 18 kts 358°
2026-05-05 07:11 -33.38720 -70.80089 1569 ft 19 kts 358°
2026-05-05 07:11 -33.38589 -70.80095 1569 ft 19 kts 357°
2026-05-05 07:11 -33.38459 -70.80103 1569 ft 19 kts 356°
2026-05-05 07:12 -33.38319 -70.80110 1568 ft 20 kts 358°
2026-05-05 07:12 -33.38178 -70.80117 1568 ft 21 kts 357°
2026-05-05 07:12 -33.38034 -70.80126 1568 ft 21 kts 357°
2026-05-05 07:12 -33.37884 -70.80131 1568 ft 22 kts 357°
2026-05-05 07:13 -33.37733 -70.80143 1569 ft 22 kts 358°
2026-05-05 07:13 -33.37581 -70.80150 1569 ft 22 kts 358°
2026-05-05 07:13 -33.37427 -70.80156 1569 ft 22 kts 357°
2026-05-05 07:13 -33.37275 -70.80166 1569 ft 15 kts 356°
2026-05-05 07:14 -33.37191 -70.80169 1569 ft 13 kts 358°
2026-05-05 07:14 -33.37173 -70.80170 1569 ft 0 kts 357°
2026-05-05 07:16 -33.37172 -70.80170 1569 ft 0 kts 356°
2026-05-05 07:16 -33.37167 -70.80172 1569 ft 2 kts 345°
2026-05-05 07:17 -33.37150 -70.80180 1569 ft 4 kts 334°
2026-05-05 07:17 -33.37114 -70.80219 1570 ft 10 kts 300°
2026-05-05 07:17 -33.37105 -70.80295 1574 ft 7 kts 261°
2026-05-05 07:17 -33.37122 -70.80339 1576 ft 5 kts 234°
2026-05-05 07:18 -33.37160 -70.80373 1576 ft 9 kts 198°
2026-05-05 07:18 -33.37196 -70.80375 1576 ft 8 kts 178°
2026-05-05 07:18 -33.37408 -70.80364 1576 ft 66 kts 178°
2026-05-05 07:18 -33.38118 -70.80325 1574 ft 136 kts 178°
2026-05-05 07:19 -33.39262 -70.80262 1617 ft 189 kts 178°
2026-05-05 07:19 -33.40649 -70.80204 2201 ft 204 kts 179°
2026-05-05 07:19 -33.42051 -70.80149 3294 ft 200 kts 177°
2026-05-05 07:19 -33.43506 -70.80061 3816 ft 221 kts 177°
2026-05-05 07:20 -33.45136 -70.80066 4233 ft 247 kts 192°
2026-05-05 07:20 -33.46677 -70.81087 4800 ft 260 kts 231°
2026-05-05 07:20 -33.47412 -70.83024 5700 ft 262 kts 264°
2026-05-05 07:20 -33.47266 -70.85169 6462 ft 267 kts 280°
2026-05-05 07:21 -33.47201 -70.87450 7148 ft 279 kts 271°
2026-05-05 07:21 -33.47237 -70.89772 8053 ft 280 kts 272°
2026-05-05 07:21 -33.47251 -70.92134 8770 ft 287 kts 272°
2026-05-05 07:21 -33.47253 -70.94525 8948 ft 287 kts 274°
2026-05-05 07:22 -33.46802 -70.96788 9611 ft 278 kts 300°
2026-05-05 07:22 -33.45604 -70.98585 10397 ft 278 kts 322°
2026-05-05 07:22 -33.43909 -70.99695 11189 ft 281 kts 339°
2026-05-05 07:22 -33.42057 -71.00505 11932 ft 285 kts 338°
2026-05-05 07:23 -33.40207 -71.01286 12692 ft 288 kts 338°
2026-05-05 07:23 -33.38300 -71.02068 13462 ft 291 kts 338°
2026-05-05 07:23 -33.36371 -71.02845 14156 ft 294 kts 338°
2026-05-05 07:23 -33.34422 -71.03620 14794 ft 297 kts 338°
2026-05-05 07:24 -33.32447 -71.04399 15449 ft 300 kts 338°
2026-05-05 07:24 -33.30449 -71.05183 16092 ft 304 kts 337°
2026-05-05 07:24 -33.28431 -71.05973 16737 ft 307 kts 337°
2026-05-05 07:24 -33.26388 -71.06771 17352 ft 310 kts 336°
2026-05-05 07:25 -33.24730 -71.07419 17875 ft 312 kts 336°
2026-05-05 07:25 -33.22686 -71.08217 18456 ft 314 kts 336°
2026-05-05 07:25 -33.20595 -71.09034 18944 ft 318 kts 336°
2026-05-05 07:25 -33.18487 -71.09856 19476 ft 320 kts 335°
2026-05-05 07:26 -33.16366 -71.10683 20013 ft 322 kts 335°
2026-05-05 07:26 -33.14229 -71.11515 20543 ft 324 kts 335°
2026-05-05 07:26 -33.12084 -71.12351 21073 ft 325 kts 335°
2026-05-05 07:26 -33.09914 -71.13197 21423 ft 334 kts 335°
2026-05-05 07:27 -33.07647 -71.14079 21382 ft 351 kts 336°
2026-05-05 07:27 -33.05282 -71.14999 21427 ft 366 kts 336°
2026-05-05 07:27 -33.02842 -71.15948 21438 ft 382 kts 336°
2026-05-05 07:27 -33.00266 -71.16948 21463 ft 397 kts 336°
2026-05-05 07:28 -32.97593 -71.17985 21500 ft 411 kts 336°
2026-05-05 07:28 -32.94841 -71.18986 21932 ft 416 kts 342°
2026-05-05 07:28 -32.91988 -71.19624 22391 ft 419 kts 343°
2026-05-05 07:28 -32.89115 -71.20291 22817 ft 422 kts 343°
2026-05-05 07:29 -32.86229 -71.20982 23275 ft 423 kts 342°
2026-05-05 07:29 -32.83334 -71.21687 23679 ft 426 kts 342°
2026-05-05 07:29 -32.80425 -71.22399 24058 ft 428 kts 342°
2026-05-05 07:29 -32.77544 -71.23107 24420 ft 430 kts 342°
2026-05-05 07:30 -32.74613 -71.23826 24794 ft 431 kts 342°
2026-05-05 07:30 -32.68711 -71.25273 25504 ft 435 kts 341°
2026-05-05 07:30 -32.65741 -71.26001 25836 ft 436 kts 341°
2026-05-05 07:31 -32.62763 -71.26729 26123 ft 438 kts 341°
2026-05-05 07:31 -32.59773 -71.27461 26529 ft 439 kts 341°
2026-05-05 07:31 -32.56776 -71.28194 26877 ft 441 kts 341°
2026-05-05 07:31 -32.53768 -71.28929 27227 ft 442 kts 341°
2026-05-05 07:32 -32.50751 -71.29665 27569 ft 443 kts 341°
2026-05-05 07:32 -32.47762 -71.30395 27897 ft 445 kts 341°
2026-05-05 07:32 -32.44727 -71.31135 28248 ft 446 kts 341°
2026-05-05 07:32 -32.41691 -71.31874 28702 ft 444 kts 341°
2026-05-05 07:33 -32.38669 -71.32610 29200 ft 442 kts 340°
2026-05-05 07:33 -32.35668 -71.33340 29709 ft 439 kts 340°
2026-05-05 07:33 -32.32682 -71.34066 30174 ft 437 kts 340°
2026-05-05 07:33 -32.29712 -71.34787 30589 ft 434 kts 340°
2026-05-05 07:34 -32.26755 -71.35505 30943 ft 434 kts 340°
2026-05-05 07:34 -32.23845 -71.36212 31302 ft 433 kts 340°
2026-05-05 07:34 -32.20899 -71.36925 31645 ft 431 kts 340°
2026-05-05 07:34 -32.17968 -71.37636 31995 ft 430 kts 340°
2026-05-05 07:35 -32.15033 -71.38347 32333 ft 429 kts 340°
2026-05-05 07:35 -32.12112 -71.39054 32653 ft 429 kts 340°
2026-05-05 07:35 -32.09191 -71.39760 32994 ft 428 kts 340°
2026-05-05 07:35 -32.06274 -71.40466 33345 ft 427 kts 340°
2026-05-05 07:36 -32.03365 -71.41168 33665 ft 426 kts 339°
2026-05-05 07:36 -32.00464 -71.41868 34004 ft 425 kts 339°
2026-05-05 07:36 -31.97569 -71.42567 34267 ft 424 kts 339°
2026-05-05 07:36 -31.94723 -71.43253 34551 ft 423 kts 339°
2026-05-05 07:37 -31.91838 -71.43948 34832 ft 422 kts 339°
2026-05-05 07:37 -31.88963 -71.44641 35121 ft 421 kts 339°
2026-05-05 07:37 -31.86098 -71.45330 35390 ft 420 kts 339°
2026-05-05 07:37 -31.83238 -71.46018 35649 ft 419 kts 339°
2026-05-05 07:38 -31.80393 -71.46702 35902 ft 418 kts 339°
2026-05-05 07:38 -31.77539 -71.47388 35997 ft 418 kts 338°
2026-05-05 07:38 -31.71906 -71.48736 35990 ft 415 kts 339°
2026-05-05 07:39 -31.66245 -71.50087 35988 ft 415 kts 338°
2026-05-05 07:39 -31.60590 -71.51434 35981 ft 415 kts 338°
2026-05-05 07:40 -31.54933 -71.52780 35985 ft 415 kts 338°
2026-05-05 07:40 -31.49317 -71.54115 35988 ft 414 kts 338°
2026-05-05 07:41 -31.43667 -71.55456 35981 ft 414 kts 338°
2026-05-05 07:41 -31.38022 -71.56794 35978 ft 414 kts 338°
2026-05-05 07:42 -31.32379 -71.58131 35983 ft 414 kts 338°
2026-05-05 07:42 -31.26733 -71.59466 35984 ft 414 kts 338°
2026-05-05 07:43 -31.21133 -71.60789 35982 ft 413 kts 338°
2026-05-05 07:43 -31.15497 -71.62118 35983 ft 413 kts 338°
2026-05-05 07:44 -31.09865 -71.63445 35983 ft 413 kts 338°
2026-05-05 07:44 -31.04277 -71.64759 35985 ft 412 kts 338°
2026-05-05 07:45 -30.98653 -71.66081 35979 ft 412 kts 338°
2026-05-05 07:45 -30.93030 -71.67400 35986 ft 412 kts 338°
2026-05-05 07:46 -30.87416 -71.68716 35981 ft 411 kts 338°
2026-05-05 07:46 -30.81807 -71.70029 35996 ft 411 kts 338°
2026-05-05 07:47 -30.76237 -71.71331 35990 ft 411 kts 338°
2026-05-05 07:47 -30.70636 -71.72640 35989 ft 411 kts 338°
2026-05-05 07:48 -30.65030 -71.73947 35999 ft 410 kts 338°
2026-05-05 07:48 -30.59436 -71.75251 35990 ft 410 kts 338°
2026-05-05 07:49 -30.53880 -71.76543 35989 ft 410 kts 338°
2026-05-05 07:49 -30.48284 -71.77844 35995 ft 410 kts 338°
2026-05-05 07:50 -30.42700 -71.79140 35996 ft 410 kts 338°
2026-05-05 07:50 -30.37110 -71.80435 35990 ft 409 kts 338°
2026-05-05 07:51 -30.31563 -71.81720 35994 ft 409 kts 338°
2026-05-05 07:51 -30.25981 -71.83010 35996 ft 409 kts 338°
2026-05-05 07:52 -30.20402 -71.84299 35998 ft 409 kts 338°
2026-05-05 07:52 -30.14821 -71.85586 35997 ft 409 kts 338°
2026-05-05 07:53 -30.09277 -71.86863 35996 ft 409 kts 338°
2026-05-05 07:53 -30.03697 -71.88148 35996 ft 409 kts 338°
2026-05-05 07:54 -29.98121 -71.89430 35997 ft 409 kts 338°
2026-05-05 07:54 -29.92541 -71.90711 35995 ft 409 kts 338°
2026-05-05 07:55 -29.86961 -71.91991 35996 ft 409 kts 338°
2026-05-05 07:55 -29.81424 -71.93259 36001 ft 409 kts 338°
2026-05-05 07:56 -29.75850 -71.94535 36004 ft 408 kts 338°
2026-05-05 07:56 -29.70277 -71.95808 36000 ft 408 kts 338°
2026-05-05 07:57 -29.64703 -71.97081 35999 ft 408 kts 338°
2026-05-05 07:57 -29.59126 -71.98352 36000 ft 409 kts 338°
2026-05-05 07:58 -29.53585 -71.99612 36000 ft 408 kts 338°
2026-05-05 07:58 -29.48010 -72.00879 35999 ft 409 kts 338°
2026-05-05 07:59 -29.42431 -72.02144 36000 ft 409 kts 338°
2026-05-05 07:59 -29.36860 -72.03407 36007 ft 408 kts 338°
2026-05-05 08:00 -29.31317 -72.04663 36005 ft 409 kts 338°
2026-05-05 08:00 -29.25738 -72.05924 36010 ft 409 kts 338°
2026-05-05 08:01 -29.20161 -72.07184 36011 ft 409 kts 338°
2026-05-05 08:01 -29.14587 -72.08442 36009 ft 408 kts 338°
2026-05-05 08:02 -29.09013 -72.09698 36007 ft 408 kts 338°
2026-05-05 08:02 -29.03482 -72.10944 36014 ft 408 kts 338°
2026-05-05 08:03 -28.97905 -72.12198 36007 ft 408 kts 338°
2026-05-05 08:03 -28.92327 -72.13451 36009 ft 408 kts 338°
2026-05-05 08:04 -28.86751 -72.14703 36013 ft 408 kts 338°
2026-05-05 08:04 -28.81175 -72.15953 36013 ft 408 kts 338°
2026-05-05 08:05 -28.75638 -72.17193 36015 ft 408 kts 338°
2026-05-05 08:05 -28.70064 -72.18440 36016 ft 408 kts 338°
2026-05-05 08:06 -28.64484 -72.19687 36014 ft 408 kts 338°
2026-05-05 08:06 -28.58909 -72.20931 36016 ft 408 kts 338°
2026-05-05 08:07 -28.53330 -72.22175 36018 ft 408 kts 338°
2026-05-05 08:07 -28.47791 -72.23410 36018 ft 408 kts 338°
2026-05-05 08:08 -28.42212 -72.24653 36015 ft 409 kts 338°
2026-05-05 08:08 -28.36626 -72.25896 36014 ft 409 kts 338°
2026-05-05 08:09 -28.31045 -72.27137 36016 ft 409 kts 338°
2026-05-05 08:09 -28.25503 -72.28368 36019 ft 409 kts 338°
2026-05-05 08:10 -28.19918 -72.29607 36017 ft 409 kts 338°
2026-05-05 08:10 -28.14333 -72.30845 36019 ft 409 kts 338°
2026-05-05 08:11 -28.08746 -72.32081 36023 ft 409 kts 338°
2026-05-05 08:11 -28.03195 -72.33309 36019 ft 409 kts 338°
2026-05-05 08:12 -27.97606 -72.34544 36017 ft 409 kts 339°
2026-05-05 08:12 -27.92009 -72.35779 36018 ft 410 kts 339°
2026-05-05 08:13 -27.86412 -72.37013 36019 ft 410 kts 339°
2026-05-05 08:13 -27.80814 -72.38246 36021 ft 410 kts 339°
2026-05-05 08:14 -27.75250 -72.39470 36021 ft 410 kts 339°
2026-05-05 08:14 -27.69650 -72.40701 36023 ft 410 kts 339°
2026-05-05 08:15 -27.64045 -72.41931 36024 ft 410 kts 339°
2026-05-05 08:15 -27.58441 -72.43161 36026 ft 410 kts 339°
2026-05-05 08:16 -27.52890 -72.44424 36018 ft 405 kts 334°
2026-05-05 08:16 -27.47565 -72.46364 36022 ft 403 kts 333°
2026-05-05 08:17 -27.42204 -72.48231 36028 ft 404 kts 334°
2026-05-05 08:17 -27.36830 -72.50079 36026 ft 404 kts 334°
2026-05-05 08:18 -27.31487 -72.51912 36029 ft 404 kts 334°
2026-05-05 08:18 -27.26105 -72.53757 36031 ft 404 kts 334°
2026-05-05 08:19 -27.20724 -72.55600 36031 ft 404 kts 334°
2026-05-05 08:19 -27.15341 -72.57441 36030 ft 405 kts 334°
2026-05-05 08:20 -27.09951 -72.59283 36034 ft 405 kts 334°
2026-05-05 08:20 -27.04598 -72.61110 36034 ft 405 kts 334°
2026-05-05 08:21 -26.99209 -72.62948 36029 ft 405 kts 334°
2026-05-05 08:21 -26.93814 -72.64786 36031 ft 405 kts 334°
2026-05-05 08:22 -26.88416 -72.66623 36032 ft 406 kts 334°
2026-05-05 08:22 -26.83050 -72.68448 36029 ft 406 kts 334°
2026-05-05 08:23 -26.77642 -72.70285 36030 ft 406 kts 334°
2026-05-05 08:23 -26.72230 -72.72121 36030 ft 406 kts 334°
2026-05-05 08:24 -26.66818 -72.73956 36028 ft 407 kts 334°
2026-05-05 08:24 -26.61434 -72.75779 36027 ft 407 kts 334°
2026-05-05 08:25 -26.56010 -72.77614 36029 ft 407 kts 334°
2026-05-05 08:25 -26.50585 -72.79448 36032 ft 408 kts 334°
2026-05-05 08:26 -26.45152 -72.81282 36031 ft 408 kts 334°
2026-05-05 08:26 -26.39754 -72.83103 36031 ft 408 kts 334°
2026-05-05 08:27 -26.34313 -72.84936 36028 ft 408 kts 334°
2026-05-05 08:27 -26.28872 -72.86768 36033 ft 409 kts 334°
2026-05-05 08:28 -26.23430 -72.88598 36032 ft 409 kts 334°
2026-05-05 08:28 -26.18023 -72.90415 36033 ft 409 kts 334°
2026-05-05 08:29 -26.12575 -72.92243 36033 ft 409 kts 334°
2026-05-05 08:30 -26.04404 -72.94983 36032 ft 409 kts 335°
2026-05-05 08:30 -25.98955 -72.96807 36029 ft 409 kts 335°
2026-05-05 08:31 -25.93499 -72.98633 36030 ft 409 kts 335°
2026-05-05 08:31 -25.88083 -73.00443 36029 ft 410 kts 335°
2026-05-05 08:32 -25.82623 -73.02266 36031 ft 410 kts 335°
2026-05-05 08:32 -25.77164 -73.04087 36031 ft 410 kts 335°
2026-05-05 08:33 -25.71701 -73.05907 36027 ft 410 kts 335°
2026-05-05 08:33 -25.66270 -73.07715 36025 ft 410 kts 335°
2026-05-05 08:34 -25.60803 -73.09534 36033 ft 411 kts 335°
2026-05-05 08:34 -25.55332 -73.11352 36029 ft 411 kts 335°
2026-05-05 08:35 -25.49854 -73.13170 36032 ft 411 kts 335°
2026-05-05 08:35 -25.44409 -73.14976 36026 ft 412 kts 335°
2026-05-05 08:36 -25.38921 -73.16794 36027 ft 412 kts 335°
2026-05-05 08:36 -25.33432 -73.18611 36029 ft 412 kts 335°
2026-05-05 08:37 -25.27934 -73.20430 36028 ft 412 kts 335°
2026-05-05 08:37 -25.22475 -73.22234 36029 ft 412 kts 335°
2026-05-05 08:38 -25.16982 -73.24046 36029 ft 412 kts 335°
2026-05-05 08:38 -25.11480 -73.25861 36031 ft 413 kts 335°
2026-05-05 08:39 -25.05973 -73.27675 36031 ft 413 kts 335°
2026-05-05 08:39 -25.00509 -73.29474 36032 ft 413 kts 336°
2026-05-05 08:40 -24.95002 -73.31285 36029 ft 413 kts 336°
2026-05-05 08:40 -24.89495 -73.33094 36030 ft 413 kts 336°
2026-05-05 08:41 -24.83986 -73.34902 36027 ft 413 kts 336°
2026-05-05 08:41 -24.78508 -73.36699 36024 ft 413 kts 336°
2026-05-05 08:42 -24.72997 -73.38505 36029 ft 413 kts 336°
2026-05-05 08:42 -24.67487 -73.40308 36028 ft 413 kts 336°
2026-05-05 08:43 -24.61965 -73.42114 36027 ft 414 kts 336°
2026-05-05 08:43 -24.56453 -73.43915 36027 ft 414 kts 336°
2026-05-05 08:44 -24.50970 -73.45705 36027 ft 414 kts 336°
2026-05-05 08:44 -24.45452 -73.47504 36024 ft 414 kts 336°
2026-05-05 08:45 -24.39935 -73.49302 36027 ft 414 kts 336°
2026-05-05 08:45 -24.34414 -73.51099 36027 ft 414 kts 336°
2026-05-05 08:46 -24.28925 -73.52885 36025 ft 414 kts 336°
2026-05-05 08:46 -24.23398 -73.54681 36028 ft 414 kts 336°
2026-05-05 08:47 -24.17868 -73.56477 36018 ft 414 kts 336°
2026-05-05 08:47 -24.12337 -73.58272 36014 ft 415 kts 336°
2026-05-05 08:48 -24.06843 -73.60052 36020 ft 415 kts 336°
2026-05-05 08:48 -24.01309 -73.61845 36021 ft 415 kts 336°
2026-05-05 08:49 -23.95776 -73.63641 36018 ft 415 kts 336°
2026-05-05 08:49 -23.90240 -73.65437 36018 ft 415 kts 336°
2026-05-05 08:50 -23.84742 -73.67219 36022 ft 415 kts 336°
2026-05-05 08:50 -23.79202 -73.69014 36018 ft 415 kts 337°
2026-05-05 08:51 -23.73665 -73.70806 36018 ft 415 kts 337°
2026-05-05 08:51 -23.68126 -73.72597 36019 ft 415 kts 337°
2026-05-05 08:52 -23.62624 -73.74374 36021 ft 415 kts 337°
2026-05-05 08:52 -23.57078 -73.76165 36018 ft 416 kts 337°
2026-05-05 08:53 -23.51531 -73.77954 36020 ft 416 kts 337°
2026-05-05 08:53 -23.45984 -73.79741 36020 ft 416 kts 337°
2026-05-05 08:54 -23.40477 -73.81514 36018 ft 416 kts 337°
2026-05-05 08:54 -23.34926 -73.83299 36020 ft 416 kts 337°
2026-05-05 08:55 -23.29377 -73.85082 36020 ft 416 kts 337°
2026-05-05 08:55 -23.23823 -73.86865 36019 ft 416 kts 337°
2026-05-05 08:56 -23.18263 -73.88649 36013 ft 416 kts 337°
2026-05-05 08:56 -23.12746 -73.90418 36018 ft 416 kts 338°
2026-05-05 08:57 -23.07186 -73.92198 36018 ft 417 kts 338°
2026-05-05 08:57 -23.01622 -73.93979 36016 ft 417 kts 338°
2026-05-05 08:58 -22.96056 -73.95758 36014 ft 417 kts 338°
2026-05-05 08:58 -22.90525 -73.97524 36013 ft 417 kts 338°
2026-05-05 08:59 -22.84954 -73.99302 36011 ft 417 kts 338°
2026-05-05 08:59 -22.79386 -74.01078 36013 ft 417 kts 338°
2026-05-05 09:00 -22.73816 -74.02853 36010 ft 417 kts 338°
2026-05-05 09:00 -22.68245 -74.04626 36010 ft 418 kts 338°
2026-05-05 09:01 -22.62703 -74.06389 36012 ft 418 kts 338°
2026-05-05 09:01 -22.57123 -74.08162 36008 ft 418 kts 338°
2026-05-05 09:02 -22.51547 -74.09933 36009 ft 418 kts 338°
2026-05-05 09:02 -22.45970 -74.11702 36011 ft 418 kts 338°
2026-05-05 09:03 -22.40426 -74.13460 36010 ft 418 kts 338°
2026-05-05 09:03 -22.34839 -74.15229 36006 ft 419 kts 338°
2026-05-05 09:04 -22.29252 -74.16998 36006 ft 419 kts 338°
2026-05-05 09:04 -22.23656 -74.18767 36005 ft 419 kts 339°
2026-05-05 09:05 -22.18058 -74.20536 36005 ft 419 kts 339°
2026-05-05 09:05 -22.12503 -74.22289 36006 ft 419 kts 339°
2026-05-05 09:06 -22.06904 -74.24055 36005 ft 419 kts 339°
2026-05-05 09:06 -22.01301 -74.25821 36006 ft 420 kts 339°
2026-05-05 09:07 -21.95699 -74.27585 36005 ft 420 kts 339°
2026-05-05 09:07 -21.90096 -74.29348 36005 ft 420 kts 339°
2026-05-05 09:08 -21.84488 -74.31111 36005 ft 420 kts 339°
2026-05-05 09:08 -21.78915 -74.32861 36002 ft 420 kts 339°
2026-05-05 09:09 -21.73303 -74.34623 36003 ft 420 kts 339°
2026-05-05 09:09 -21.67691 -74.36383 36002 ft 420 kts 339°
2026-05-05 09:10 -21.62070 -74.38145 36003 ft 421 kts 339°
2026-05-05 09:10 -21.56493 -74.39891 36004 ft 421 kts 339°
2026-05-05 09:11 -21.50867 -74.41651 36005 ft 421 kts 339°
2026-05-05 09:11 -21.45244 -74.43409 36004 ft 421 kts 339°
2026-05-05 09:12 -21.39616 -74.45167 36001 ft 421 kts 339°
2026-05-05 09:12 -21.34029 -74.46911 36000 ft 421 kts 339°
2026-05-05 09:13 -21.28399 -74.48667 36000 ft 421 kts 339°
2026-05-05 09:13 -21.22768 -74.50422 36001 ft 422 kts 339°
2026-05-05 09:14 -21.17125 -74.52179 35997 ft 422 kts 339°
2026-05-05 09:14 -21.11525 -74.53920 35997 ft 422 kts 339°
2026-05-05 09:15 -21.05882 -74.55674 35997 ft 422 kts 339°
2026-05-05 09:15 -21.00235 -74.57427 35997 ft 423 kts 339°
2026-05-05 09:16 -20.95538 -74.58885 35996 ft 423 kts 339°
2026-05-05 09:16 -20.89891 -74.60636 35997 ft 423 kts 339°
2026-05-05 09:17 -20.83323 -74.62672 35997 ft 423 kts 339°
2026-05-05 09:17 -20.77674 -74.64420 35994 ft 423 kts 339°
2026-05-05 09:18 -20.72977 -74.65874 35992 ft 423 kts 339°
2026-05-05 09:18 -20.67329 -74.67620 35994 ft 423 kts 339°
2026-05-05 09:19 -20.60763 -74.69648 35992 ft 423 kts 339°
2026-05-05 09:19 -20.56064 -74.71098 35992 ft 423 kts 339°
2026-05-05 09:20 -20.50420 -74.72840 35994 ft 422 kts 339°
2026-05-05 09:20 -20.44771 -74.74581 35993 ft 422 kts 339°
2026-05-05 09:21 -20.39133 -74.76317 35993 ft 422 kts 339°
2026-05-05 09:21 -20.33493 -74.78052 35991 ft 422 kts 339°
2026-05-05 09:22 -20.27894 -74.79775 35990 ft 422 kts 339°
2026-05-05 09:22 -20.22249 -74.81509 35994 ft 422 kts 339°
2026-05-05 09:23 -20.16608 -74.83241 35993 ft 422 kts 339°
2026-05-05 09:23 -20.10967 -74.84971 35993 ft 422 kts 339°
2026-05-05 09:24 -20.05360 -74.86691 35995 ft 422 kts 339°
2026-05-05 09:24 -19.99720 -74.88419 35996 ft 422 kts 339°
2026-05-05 09:25 -19.94080 -74.90145 35990 ft 422 kts 339°
2026-05-05 09:25 -19.88438 -74.91871 35994 ft 422 kts 339°
2026-05-05 09:26 -19.82789 -74.93598 35992 ft 422 kts 339°
2026-05-05 09:26 -19.77182 -74.95311 35992 ft 422 kts 340°
2026-05-05 09:27 -19.71540 -74.97033 35995 ft 422 kts 340°
2026-05-05 09:27 -19.65894 -74.98755 35991 ft 422 kts 340°
2026-05-05 09:28 -19.60244 -75.00477 35993 ft 422 kts 340°
2026-05-05 09:28 -19.54631 -75.02186 35990 ft 423 kts 340°
2026-05-05 09:29 -19.48976 -75.03907 35999 ft 423 kts 340°
2026-05-05 09:29 -19.43317 -75.05628 35989 ft 423 kts 340°
2026-05-05 09:30 -19.37654 -75.07349 35988 ft 423 kts 340°
2026-05-05 09:30 -19.31996 -75.09067 35988 ft 423 kts 340°
2026-05-05 09:31 -19.26371 -75.10774 35998 ft 424 kts 340°
2026-05-05 09:31 -19.20703 -75.12493 35994 ft 424 kts 340°
2026-05-05 09:32 -19.15033 -75.14211 35999 ft 424 kts 340°
2026-05-05 09:32 -19.09357 -75.15929 35988 ft 424 kts 340°
2026-05-05 09:33 -19.03720 -75.17635 35992 ft 424 kts 340°
2026-05-05 09:33 -18.98046 -75.19351 35991 ft 424 kts 340°
2026-05-05 09:34 -18.92365 -75.21067 35997 ft 425 kts 340°
2026-05-05 09:34 -18.86683 -75.22783 35986 ft 425 kts 340°
2026-05-05 09:35 -18.81034 -75.24487 35994 ft 425 kts 340°
2026-05-05 09:35 -18.72503 -75.27060 35993 ft 425 kts 340°
2026-05-05 09:36 -18.66811 -75.28773 35993 ft 426 kts 340°
2026-05-05 09:36 -18.61116 -75.30488 35991 ft 426 kts 340°
2026-05-05 09:37 -18.55454 -75.32191 35988 ft 426 kts 340°
2026-05-05 09:37 -18.49758 -75.33904 35989 ft 426 kts 340°
2026-05-05 09:38 -18.44054 -75.35617 35988 ft 426 kts 340°
2026-05-05 09:38 -18.38348 -75.37330 35992 ft 427 kts 341°
2026-05-05 09:39 -18.32620 -75.38988 35988 ft 427 kts 341°
2026-05-05 09:39 -18.26916 -75.40601 35991 ft 427 kts 341°
2026-05-05 09:40 -18.21172 -75.42227 35990 ft 428 kts 341°
2026-05-05 09:40 -18.15420 -75.43856 35988 ft 428 kts 341°
2026-05-05 09:41 -18.09669 -75.45482 35986 ft 428 kts 342°
2026-05-05 09:41 -18.03909 -75.47111 35987 ft 429 kts 342°
2026-05-05 09:42 -17.98185 -75.48728 35988 ft 429 kts 342°
2026-05-05 09:42 -17.92414 -75.50357 35986 ft 430 kts 342°
2026-05-05 09:43 -17.86638 -75.51986 35987 ft 430 kts 342°
2026-05-05 09:43 -17.80899 -75.53604 35987 ft 430 kts 342°
2026-05-05 09:44 -17.75116 -75.55233 35985 ft 431 kts 342°
2026-05-05 09:44 -17.69324 -75.56864 35984 ft 431 kts 342°
2026-05-05 09:45 -17.63527 -75.58495 35985 ft 431 kts 342°
2026-05-05 09:45 -17.57732 -75.60124 35984 ft 432 kts 342°
2026-05-05 09:46 -17.51966 -75.61744 35984 ft 432 kts 342°
2026-05-05 09:46 -17.46157 -75.63375 35984 ft 432 kts 342°
2026-05-05 09:47 -17.40352 -75.65004 35985 ft 432 kts 342°
2026-05-05 09:47 -17.34541 -75.66634 35987 ft 432 kts 342°
2026-05-05 09:48 -17.28725 -75.68264 35983 ft 433 kts 342°
2026-05-05 09:48 -17.22948 -75.69881 35983 ft 433 kts 342°
2026-05-05 09:49 -17.17132 -75.71509 35985 ft 433 kts 342°
2026-05-05 09:49 -17.11311 -75.73137 35985 ft 433 kts 342°
2026-05-05 09:50 -17.05527 -75.74754 35985 ft 433 kts 342°
2026-05-05 09:50 -16.99702 -75.76381 35982 ft 433 kts 342°
2026-05-05 09:51 -16.93876 -75.78008 35984 ft 434 kts 342°
2026-05-05 09:51 -16.88048 -75.79633 35983 ft 434 kts 343°
2026-05-05 09:52 -16.82214 -75.81260 35980 ft 434 kts 343°
2026-05-05 09:52 -16.76417 -75.82875 35976 ft 434 kts 343°
2026-05-05 09:53 -16.70581 -75.84500 35981 ft 434 kts 343°
2026-05-05 09:53 -16.64740 -75.86125 35982 ft 435 kts 343°
2026-05-05 09:54 -16.58897 -75.87750 35982 ft 435 kts 343°
2026-05-05 09:54 -16.53086 -75.89365 35979 ft 435 kts 343°
2026-05-05 09:55 -16.47228 -75.90992 35980 ft 436 kts 343°
2026-05-05 09:55 -16.41372 -75.92617 35979 ft 436 kts 343°
2026-05-05 09:56 -16.35513 -75.94243 35980 ft 436 kts 343°
2026-05-05 09:56 -16.29686 -75.95858 35980 ft 436 kts 343°
2026-05-05 09:57 -16.23820 -75.97483 35981 ft 436 kts 343°
2026-05-05 09:57 -16.17949 -75.99108 35976 ft 437 kts 343°
2026-05-05 09:58 -16.12076 -76.00733 35978 ft 437 kts 343°
2026-05-05 09:58 -16.06199 -76.02359 35979 ft 437 kts 343°
2026-05-05 09:59 -16.00359 -76.03973 35981 ft 437 kts 343°
2026-05-05 09:59 -15.94479 -76.05597 35979 ft 438 kts 343°
2026-05-05 10:00 -15.88590 -76.07222 35978 ft 438 kts 343°
2026-05-05 10:00 -15.82703 -76.08847 35982 ft 438 kts 343°
2026-05-05 10:01 -15.76854 -76.10460 35978 ft 438 kts 343°
2026-05-05 10:01 -15.70964 -76.12082 35976 ft 438 kts 343°
2026-05-05 10:02 -15.65072 -76.13705 35981 ft 438 kts 343°
2026-05-05 10:02 -15.59181 -76.15326 35985 ft 438 kts 343°
2026-05-05 10:03 -15.53324 -76.16937 35974 ft 439 kts 343°
2026-05-05 10:03 -15.47424 -76.18559 35977 ft 439 kts 343°
2026-05-05 10:04 -15.41515 -76.20182 35975 ft 439 kts 343°
2026-05-05 10:04 -15.35613 -76.21802 35977 ft 439 kts 343°
2026-05-05 10:05 -15.29743 -76.23413 35981 ft 439 kts 343°
2026-05-05 10:05 -15.23830 -76.25034 35978 ft 439 kts 343°
2026-05-05 10:06 -15.17915 -76.26656 35981 ft 440 kts 343°
2026-05-05 10:06 -15.12001 -76.28276 35976 ft 440 kts 344°
2026-05-05 10:07 -15.06119 -76.29886 35978 ft 440 kts 344°
2026-05-05 10:07 -15.00199 -76.31506 35974 ft 440 kts 344°
2026-05-05 10:08 -14.94275 -76.33125 35973 ft 440 kts 344°
2026-05-05 10:08 -14.88352 -76.34744 35971 ft 440 kts 344°
2026-05-05 10:09 -14.82427 -76.36362 35970 ft 441 kts 344°
2026-05-05 10:09 -14.76539 -76.37970 35974 ft 441 kts 344°
2026-05-05 10:10 -14.70606 -76.39589 35979 ft 441 kts 344°
2026-05-05 10:10 -14.64675 -76.41206 35978 ft 441 kts 344°
2026-05-05 10:11 -14.58736 -76.42824 35976 ft 441 kts 344°
2026-05-05 10:11 -14.52799 -76.44442 35979 ft 441 kts 344°
2026-05-05 10:12 -14.46898 -76.46048 35979 ft 442 kts 344°
2026-05-05 10:12 -14.40956 -76.47665 35975 ft 442 kts 344°
2026-05-05 10:13 -14.35014 -76.49281 35978 ft 442 kts 344°
2026-05-05 10:13 -14.29064 -76.50898 35980 ft 442 kts 344°
2026-05-05 10:14 -14.23153 -76.52479 35978 ft 442 kts 344°
2026-05-05 10:14 -14.17200 -76.54071 35975 ft 442 kts 345°
2026-05-05 10:15 -14.11244 -76.55663 35968 ft 442 kts 345°
2026-05-05 10:15 -14.05286 -76.57254 35977 ft 442 kts 345°
2026-05-05 10:16 -13.99360 -76.58836 35973 ft 443 kts 345°
2026-05-05 10:16 -13.93402 -76.60426 35976 ft 443 kts 345°
2026-05-05 10:17 -13.87434 -76.62017 35977 ft 443 kts 345°
2026-05-05 10:17 -13.81465 -76.63609 35977 ft 443 kts 345°
2026-05-05 10:18 -13.75536 -76.65189 35971 ft 443 kts 345°
2026-05-05 10:18 -13.69564 -76.66778 35972 ft 443 kts 345°
2026-05-05 10:19 -13.63590 -76.68368 35970 ft 444 kts 345°
2026-05-05 10:19 -13.57612 -76.69959 35971 ft 444 kts 345°
2026-05-05 10:20 -13.51632 -76.71548 35970 ft 444 kts 345°
2026-05-05 10:20 -13.45691 -76.73127 35972 ft 444 kts 345°
2026-05-05 10:21 -13.39705 -76.74717 35967 ft 444 kts 345°
2026-05-05 10:21 -13.33721 -76.76305 35975 ft 444 kts 345°
2026-05-05 10:22 -13.27772 -76.77883 35971 ft 445 kts 345°
2026-05-05 10:22 -13.21776 -76.79474 35969 ft 445 kts 345°
2026-05-05 10:23 -13.15787 -76.81061 35977 ft 445 kts 345°
2026-05-05 10:23 -13.09796 -76.82648 35975 ft 445 kts 345°
2026-05-05 10:24 -13.03836 -76.84226 35977 ft 445 kts 345°
2026-05-05 10:24 -12.97842 -76.85813 35979 ft 445 kts 345°
2026-05-05 10:25 -12.91848 -76.87398 35980 ft 445 kts 345°
2026-05-05 10:25 -12.85846 -76.88985 35977 ft 445 kts 345°
2026-05-05 10:26 -12.79886 -76.90560 35978 ft 446 kts 345°
2026-05-05 10:26 -12.73884 -76.92145 35974 ft 446 kts 345°
2026-05-05 10:27 -12.67874 -76.93732 35980 ft 446 kts 345°
2026-05-05 10:27 -12.61862 -76.95318 35972 ft 446 kts 345°
2026-05-05 10:28 -12.55891 -76.96893 35974 ft 446 kts 345°
2026-05-05 10:28 -12.49882 -76.98477 35968 ft 446 kts 345°
2026-05-05 10:29 -12.43866 -77.00062 35970 ft 446 kts 345°
2026-05-05 10:29 -12.37847 -77.01647 35972 ft 447 kts 345°
2026-05-05 10:30 -12.31954 -77.03198 35967 ft 447 kts 345°
2026-05-05 10:30 -12.25975 -77.04771 35955 ft 447 kts 345°
2026-05-05 10:31 -12.19952 -77.06356 35949 ft 447 kts 345°
2026-05-05 10:31 -12.13930 -77.07939 35944 ft 447 kts 345°
2026-05-05 10:32 -12.07904 -77.09522 35939 ft 447 kts 345°
2026-05-05 10:32 -12.04846 -77.10081 35920 ft 447 kts 358°
2026-05-05 10:32 -12.01802 -77.09821 35945 ft 448 kts 11°
2026-05-05 10:33 -11.95685 -77.08476 35937 ft 450 kts 11°
2026-05-05 10:33 -11.89585 -77.07028 35945 ft 450 kts 12°
2026-05-05 10:34 -11.83497 -77.05544 35955 ft 450 kts 12°
2026-05-05 10:34 -11.77450 -77.04065 35970 ft 450 kts 12°
2026-05-05 10:35 -11.71364 -77.02577 35983 ft 449 kts 12°
2026-05-05 10:35 -11.65290 -77.01093 36000 ft 449 kts 12°
2026-05-05 10:36 -11.59213 -76.99609 36011 ft 448 kts 12°
2026-05-05 10:36 -11.53181 -76.98136 36022 ft 448 kts 12°
2026-05-05 10:37 -11.47120 -76.96657 36021 ft 447 kts 12°
2026-05-05 10:37 -11.41058 -76.95178 36028 ft 448 kts 12°
2026-05-05 10:38 -11.35003 -76.93702 36054 ft 448 kts 12°
2026-05-05 10:38 -11.28995 -76.92238 36074 ft 447 kts 12°
2026-05-05 10:39 -11.22943 -76.90763 36080 ft 447 kts 12°
2026-05-05 10:39 -11.16901 -76.89292 36100 ft 446 kts 12°
2026-05-05 10:40 -11.10864 -76.87822 36116 ft 446 kts 12°
2026-05-05 10:40 -11.04834 -76.86355 36127 ft 446 kts 12°
2026-05-05 10:41 -10.98858 -76.84902 36183 ft 444 kts 12°
2026-05-05 10:41 -10.92866 -76.83445 36181 ft 442 kts 13°
2026-05-05 10:42 -10.83883 -76.81263 36213 ft 443 kts 12°
2026-05-05 10:43 -10.77838 -76.80115 36207 ft 440 kts
2026-05-05 10:43 -10.71758 -76.79420 36229 ft 444 kts
2026-05-05 10:44 -10.65632 -76.78742 36231 ft 442 kts
2026-05-05 10:44 -10.59501 -76.78065 36225 ft 443 kts
2026-05-05 10:45 -10.53365 -76.77389 36260 ft 444 kts
2026-05-05 10:45 -10.47281 -76.76719 36266 ft 443 kts
2026-05-05 10:46 -10.41143 -76.76043 36264 ft 443 kts
2026-05-05 10:46 -10.35008 -76.75367 36273 ft 443 kts
2026-05-05 10:47 -10.28868 -76.74692 36273 ft 444 kts
2026-05-05 10:47 -10.22778 -76.74022 36269 ft 443 kts
2026-05-05 10:48 -10.16636 -76.73346 36273 ft 444 kts
2026-05-05 10:48 -10.10493 -76.72671 36275 ft 444 kts
2026-05-05 10:49 -10.04346 -76.71995 36278 ft 445 kts
2026-05-05 10:49 -9.98189 -76.71319 36274 ft 445 kts
2026-05-05 10:50 -9.92072 -76.70648 36279 ft 445 kts
2026-05-05 10:50 -9.85904 -76.69971 36270 ft 446 kts
2026-05-05 10:51 -9.79732 -76.69294 36272 ft 446 kts
2026-05-05 10:51 -9.73560 -76.68617 36268 ft 447 kts
2026-05-05 10:52 -9.67417 -76.67943 36254 ft 447 kts
2026-05-05 10:52 -9.61236 -76.67265 36261 ft 447 kts
2026-05-05 10:53 -9.55058 -76.66589 36245 ft 447 kts
2026-05-05 10:53 -9.48880 -76.65912 36247 ft 447 kts
2026-05-05 10:54 -9.42696 -76.65235 36221 ft 447 kts
2026-05-05 10:54 -9.36562 -76.64564 36215 ft 446 kts
2026-05-05 10:55 -9.30382 -76.63888 36197 ft 447 kts
2026-05-05 10:55 -9.24194 -76.63211 36175 ft 447 kts
2026-05-05 10:56 -9.17999 -76.62533 36155 ft 448 kts
2026-05-05 10:56 -9.11805 -76.61857 36180 ft 448 kts
2026-05-05 10:57 -9.05651 -76.61185 36155 ft 447 kts
2026-05-05 10:57 -8.99449 -76.60507 36148 ft 449 kts
2026-05-05 10:58 -8.93239 -76.59829 36152 ft 449 kts
2026-05-05 10:58 -8.87034 -76.59152 36152 ft 449 kts
2026-05-05 10:59 -8.80859 -76.58478 36134 ft 449 kts
2026-05-05 10:59 -8.74644 -76.57800 36128 ft 449 kts
2026-05-05 11:00 -8.68435 -76.57124 36130 ft 449 kts
2026-05-05 11:00 -8.62222 -76.56446 36108 ft 448 kts
2026-05-05 11:01 -8.56057 -76.55775 36108 ft 449 kts
2026-05-05 11:01 -8.49849 -76.55098 36103 ft 449 kts
2026-05-05 11:02 -8.43643 -76.54422 36089 ft 449 kts
2026-05-05 11:02 -8.37435 -76.53745 36084 ft 449 kts
2026-05-05 11:03 -8.31222 -76.53069 36079 ft 449 kts
2026-05-05 11:03 -8.25053 -76.52397 36074 ft 449 kts
2026-05-05 11:04 -8.18836 -76.51720 36072 ft 449 kts
2026-05-05 11:04 -8.12623 -76.51044 36072 ft 449 kts
2026-05-05 11:05 -8.06407 -76.50367 36069 ft 449 kts
2026-05-05 11:05 -8.00232 -76.49696 36070 ft 449 kts
2026-05-05 11:06 -7.94020 -76.49020 36060 ft 449 kts
2026-05-05 11:06 -7.87809 -76.48345 36061 ft 449 kts
2026-05-05 11:07 -7.81598 -76.47670 36056 ft 449 kts
2026-05-05 11:07 -7.75393 -76.46996 36057 ft 449 kts
2026-05-05 11:08 -7.69225 -76.46326 36053 ft 449 kts
2026-05-05 11:08 -7.63020 -76.45652 36050 ft 449 kts
2026-05-05 11:09 -7.56817 -76.44979 36046 ft 448 kts
2026-05-05 11:09 -7.50613 -76.44306 36048 ft 448 kts
2026-05-05 11:10 -7.44414 -76.43633 36044 ft 448 kts
2026-05-05 11:10 -7.38260 -76.42966 36026 ft 448 kts
2026-05-05 11:11 -7.32067 -76.42294 36023 ft 448 kts
2026-05-05 11:11 -7.25870 -76.41623 36023 ft 448 kts
2026-05-05 11:12 -7.19668 -76.40951 36022 ft 448 kts
2026-05-05 11:12 -7.13472 -76.40279 36015 ft 448 kts
2026-05-05 11:13 -7.07315 -76.39612 36015 ft 448 kts
2026-05-05 11:13 -7.01115 -76.38941 36019 ft 448 kts
2026-05-05 11:14 -6.94913 -76.38270 36022 ft 448 kts
2026-05-05 11:14 -6.88717 -76.37599 36023 ft 448 kts
2026-05-05 11:15 -6.82552 -76.36933 36026 ft 448 kts
2026-05-05 11:15 -6.76353 -76.36262 36031 ft 448 kts
2026-05-05 11:16 -6.70146 -76.35591 36037 ft 448 kts
2026-05-05 11:16 -6.63993 -76.34653 36050 ft 447 kts 14°
2026-05-05 11:17 -6.57935 -76.33187 36047 ft 448 kts 14°
2026-05-05 11:17 -6.51919 -76.31714 36048 ft 448 kts 14°
2026-05-05 11:18 -6.45868 -76.30230 36048 ft 448 kts 14°
2026-05-05 11:18 -6.39810 -76.28744 36042 ft 448 kts 14°
2026-05-05 11:19 -6.33751 -76.27259 36036 ft 448 kts 14°
2026-05-05 11:19 -6.27742 -76.25786 36026 ft 448 kts 14°
2026-05-05 11:20 -6.21690 -76.24303 36017 ft 448 kts 14°
2026-05-05 11:20 -6.15633 -76.22819 36007 ft 448 kts 14°
2026-05-05 11:21 -6.09577 -76.21336 36006 ft 448 kts 14°
2026-05-05 11:21 -6.03563 -76.19864 35998 ft 448 kts 14°
2026-05-05 11:22 -5.97503 -76.18380 35998 ft 448 kts 14°
2026-05-05 11:22 -5.91446 -76.16898 36000 ft 448 kts 14°
2026-05-05 11:23 -5.85388 -76.15416 35996 ft 448 kts 14°
2026-05-05 11:23 -5.79367 -76.13943 35994 ft 448 kts 14°
2026-05-05 11:24 -5.73309 -76.12461 35996 ft 448 kts 14°
2026-05-05 11:24 -5.67245 -76.10978 35996 ft 448 kts 14°
2026-05-05 11:25 -5.61183 -76.09497 35995 ft 449 kts 14°
2026-05-05 11:25 -5.55114 -76.08013 35996 ft 449 kts 14°
2026-05-05 11:26 -5.49089 -76.06540 35996 ft 449 kts 14°
2026-05-05 11:26 -5.43018 -76.05057 35995 ft 449 kts 14°
2026-05-05 11:27 -5.36948 -76.03575 35994 ft 449 kts 14°
2026-05-05 11:27 -5.30874 -76.02091 35992 ft 449 kts 14°
2026-05-05 11:28 -5.24799 -76.00608 35995 ft 450 kts 14°
2026-05-05 11:28 -5.18758 -75.99133 35993 ft 450 kts 14°
2026-05-05 11:29 -5.12675 -75.97649 35989 ft 450 kts 14°
2026-05-05 11:29 -5.06588 -75.96163 35987 ft 450 kts 14°
2026-05-05 11:30 -5.00501 -75.94678 35990 ft 450 kts 14°
2026-05-05 11:30 -4.94450 -75.93202 35990 ft 451 kts 14°
2026-05-05 11:31 -4.88354 -75.91716 35990 ft 451 kts 14°
2026-05-05 11:31 -4.82260 -75.90229 35985 ft 451 kts 14°
2026-05-05 11:32 -4.76155 -75.88742 35989 ft 451 kts 14°
2026-05-05 11:32 -4.70052 -75.87254 35988 ft 451 kts 14°
2026-05-05 11:33 -4.63989 -75.85776 35987 ft 451 kts 14°
2026-05-05 11:33 -4.57887 -75.84289 35989 ft 452 kts 15°
2026-05-05 11:34 -4.51781 -75.82802 35988 ft 452 kts 15°
2026-05-05 11:34 -4.45677 -75.81315 35986 ft 452 kts 15°
2026-05-05 11:35 -4.39604 -75.79836 35984 ft 452 kts 15°
2026-05-05 11:35 -4.33490 -75.78348 35986 ft 452 kts 15°
2026-05-05 11:36 -4.27370 -75.76858 35986 ft 453 kts 15°
2026-05-05 11:36 -4.21246 -75.75367 35987 ft 453 kts 15°
2026-05-05 11:37 -4.15163 -75.73887 35986 ft 453 kts 15°
2026-05-05 11:37 -4.09036 -75.72396 35986 ft 453 kts 15°
2026-05-05 11:38 -4.02904 -75.70904 35985 ft 454 kts 15°
2026-05-05 11:38 -3.96768 -75.69411 35986 ft 454 kts 15°
2026-05-05 11:39 -3.90669 -75.67928 35988 ft 454 kts 15°
2026-05-05 11:39 -3.84529 -75.66435 35992 ft 454 kts 15°
2026-05-05 11:40 -3.78386 -75.64941 35989 ft 455 kts 15°
2026-05-05 11:40 -3.72237 -75.63446 35989 ft 455 kts 15°
2026-05-05 11:41 -3.66080 -75.61950 35988 ft 455 kts 15°
2026-05-05 11:41 -3.59970 -75.60464 35988 ft 455 kts 15°
2026-05-05 11:42 -3.53811 -75.58968 35986 ft 455 kts 15°
2026-05-05 11:42 -3.47654 -75.57472 35988 ft 456 kts 15°
2026-05-05 11:43 -3.41490 -75.55975 35987 ft 456 kts 15°
2026-05-05 11:43 -3.35365 -75.54487 35994 ft 456 kts 15°
2026-05-05 11:44 -3.29196 -75.52989 35994 ft 456 kts 15°
2026-05-05 11:44 -3.23032 -75.51492 35993 ft 456 kts 15°
2026-05-05 11:45 -3.16864 -75.49995 35991 ft 456 kts 15°
2026-05-05 11:45 -3.10741 -75.48509 35991 ft 456 kts 15°
2026-05-05 11:46 -3.04576 -75.47012 35990 ft 456 kts 15°
2026-05-05 11:46 -2.98418 -75.45517 35992 ft 456 kts 15°
2026-05-05 11:47 -2.92253 -75.44021 35991 ft 456 kts 15°
2026-05-05 11:47 -2.86136 -75.42537 35992 ft 455 kts 15°
2026-05-05 11:48 -2.76897 -75.40296 35994 ft 456 kts 15°
2026-05-05 11:48 -2.71774 -75.39053 35993 ft 456 kts 15°
2026-05-05 11:49 -2.65614 -75.37559 35996 ft 456 kts 15°
2026-05-05 11:49 -2.58454 -75.35822 35996 ft 456 kts 15°
2026-05-05 11:50 -2.52293 -75.34328 35998 ft 456 kts 15°
2026-05-05 11:50 -2.47167 -75.33085 35996 ft 456 kts 15°
2026-05-05 11:51 -2.41007 -75.31591 35999 ft 456 kts 15°
2026-05-05 11:51 -2.33844 -75.29855 36000 ft 456 kts 15°
2026-05-05 11:52 -2.28678 -75.28603 35999 ft 456 kts 15°
2026-05-05 11:52 -2.22556 -75.27119 35996 ft 456 kts 15°
2026-05-05 11:53 -2.16390 -75.25624 35995 ft 456 kts 15°
2026-05-05 11:53 -2.10222 -75.24130 35999 ft 456 kts 15°
2026-05-05 11:54 -2.04056 -75.22635 35997 ft 456 kts 15°
2026-05-05 11:54 -1.97887 -75.21141 35999 ft 456 kts 15°
2026-05-05 11:55 -1.91756 -75.19655 36000 ft 456 kts 15°
2026-05-05 11:55 -1.85580 -75.18159 35997 ft 457 kts 15°
2026-05-05 11:56 -1.79407 -75.16663 35998 ft 457 kts 15°
2026-05-05 11:56 -1.73227 -75.15167 35998 ft 457 kts 15°
2026-05-05 11:57 -1.67088 -75.13680 35999 ft 457 kts 15°
2026-05-05 11:57 -1.60908 -75.12183 35996 ft 457 kts 15°
2026-05-05 11:58 -1.54724 -75.10685 36000 ft 457 kts 15°
2026-05-05 11:58 -1.48542 -75.09188 36001 ft 457 kts 15°
2026-05-05 11:59 -1.42361 -75.07691 36002 ft 457 kts 15°
2026-05-05 11:59 -1.36218 -75.06204 36001 ft 457 kts 15°
2026-05-05 12:00 -1.30030 -75.04706 36001 ft 458 kts 15°
2026-05-05 12:00 -1.23843 -75.03208 35999 ft 458 kts 15°
2026-05-05 12:01 -1.17652 -75.01709 36000 ft 458 kts 15°
2026-05-05 12:01 -1.11498 -75.00219 35999 ft 458 kts 15°
2026-05-05 12:02 -1.05304 -74.98719 36005 ft 458 kts 15°
2026-05-05 12:02 -0.99110 -74.97220 36010 ft 458 kts 15°
2026-05-05 12:03 -0.92908 -74.95719 36004 ft 459 kts 15°
2026-05-05 12:03 -0.86702 -74.94216 36002 ft 459 kts 15°
2026-05-05 12:04 -0.80537 -74.92724 36005 ft 459 kts 15°
2026-05-05 12:04 -0.74328 -74.91221 36005 ft 459 kts 15°
2026-05-05 12:05 -0.68119 -74.89718 36006 ft 459 kts 15°
2026-05-05 12:05 -0.61902 -74.88214 36003 ft 460 kts 15°
2026-05-05 12:06 -0.55722 -74.86718 36006 ft 460 kts 15°
2026-05-05 12:06 -0.49504 -74.85213 36003 ft 460 kts 15°
2026-05-05 12:07 -0.43275 -74.83706 36005 ft 460 kts 15°
2026-05-05 12:07 -0.37047 -74.82199 36003 ft 460 kts 15°
2026-05-05 12:08 -0.30860 -74.80701 36003 ft 461 kts 15°
2026-05-05 12:08 -0.24634 -74.79195 36002 ft 461 kts 15°
2026-05-05 12:09 -0.18382 -74.77752 35994 ft 462 kts
2026-05-05 12:09 -0.11939 -74.77722 36000 ft 465 kts
2026-05-05 12:10 -0.05472 -74.77822 36008 ft 465 kts
2026-05-05 12:10 0.00951 -74.77947 36006 ft 465 kts
2026-05-05 12:11 0.07419 -74.78079 36009 ft 465 kts
2026-05-05 12:11 0.13886 -74.78212 36006 ft 465 kts
2026-05-05 12:12 0.20350 -74.78346 36008 ft 465 kts
2026-05-05 12:12 0.26766 -74.78479 36008 ft 464 kts
2026-05-05 12:13 0.33231 -74.78612 36010 ft 464 kts
2026-05-05 12:13 0.39686 -74.78746 36010 ft 464 kts
2026-05-05 12:14 0.46138 -74.78879 36008 ft 464 kts
2026-05-05 12:14 0.52595 -74.79013 36009 ft 464 kts
2026-05-05 12:15 0.59013 -74.79146 36009 ft 464 kts
2026-05-05 12:15 0.65469 -74.79279 36010 ft 464 kts
2026-05-05 12:16 0.71929 -74.79413 36014 ft 464 kts
2026-05-05 12:16 0.78388 -74.79546 36014 ft 464 kts
2026-05-05 12:17 0.84810 -74.79679 36017 ft 464 kts
2026-05-05 12:17 0.91268 -74.79811 36016 ft 465 kts
2026-05-05 12:18 0.97736 -74.79944 36017 ft 465 kts
2026-05-05 12:18 1.04209 -74.80077 36016 ft 465 kts
2026-05-05 12:19 1.10635 -74.80209 36015 ft 465 kts
2026-05-05 12:19 1.17111 -74.80342 36019 ft 466 kts
2026-05-05 12:20 1.23593 -74.80475 36014 ft 466 kts
2026-05-05 12:20 1.30069 -74.80608 36015 ft 466 kts
2026-05-05 12:21 1.36510 -74.80740 36010 ft 466 kts
2026-05-05 12:21 1.42984 -74.80873 36015 ft 466 kts
2026-05-05 12:22 1.49460 -74.81006 36016 ft 465 kts
2026-05-05 12:22 1.55933 -74.81139 36019 ft 465 kts
2026-05-05 12:23 1.62405 -74.81271 36018 ft 465 kts
2026-05-05 12:23 1.68827 -74.81403 36019 ft 465 kts
2026-05-05 12:24 1.75298 -74.81536 36018 ft 465 kts
2026-05-05 12:24 1.81765 -74.81669 36020 ft 465 kts
2026-05-05 12:25 1.88236 -74.81802 36025 ft 465 kts
2026-05-05 12:25 1.94665 -74.81934 36030 ft 465 kts
2026-05-05 12:26 2.01141 -74.82067 36035 ft 465 kts
2026-05-05 12:26 2.07609 -74.82200 36042 ft 465 kts
2026-05-05 12:27 2.14083 -74.82333 36047 ft 465 kts
2026-05-05 12:27 2.20512 -74.82465 36058 ft 465 kts
2026-05-05 12:28 2.26982 -74.82598 36067 ft 465 kts
2026-05-05 12:28 2.33450 -74.82731 36074 ft 465 kts
2026-05-05 12:29 2.39921 -74.82864 36089 ft 465 kts
2026-05-05 12:29 2.46344 -74.82996 36099 ft 465 kts
2026-05-05 12:30 2.52805 -74.83129 36112 ft 465 kts
2026-05-05 12:30 2.59273 -74.83262 36120 ft 465 kts
2026-05-05 12:31 2.65732 -74.83395 36130 ft 464 kts
2026-05-05 12:31 2.72196 -74.83528 36133 ft 464 kts
2026-05-05 12:32 2.78617 -74.83660 36134 ft 464 kts
2026-05-05 12:32 2.85078 -74.83793 36140 ft 464 kts
2026-05-05 12:33 2.91534 -74.83925 36141 ft 464 kts
2026-05-05 12:33 2.97994 -74.84058 36137 ft 464 kts
2026-05-05 12:34 3.04460 -74.84191 36133 ft 464 kts
2026-05-05 12:34 3.10875 -74.84323 36135 ft 465 kts
2026-05-05 12:35 3.17341 -74.84456 36121 ft 464 kts
2026-05-05 12:35 3.23800 -74.84589 36118 ft 464 kts
2026-05-05 12:36 3.30262 -74.84722 36119 ft 464 kts
2026-05-05 12:36 3.36681 -74.84854 36118 ft 465 kts
2026-05-05 12:37 3.43158 -74.84988 36115 ft 465 kts
2026-05-05 12:37 3.49632 -74.85121 36113 ft 465 kts
2026-05-05 12:38 3.56108 -74.85254 36108 ft 466 kts
2026-05-05 12:38 3.62543 -74.85387 36112 ft 466 kts
2026-05-05 12:39 3.69025 -74.85520 36162 ft 466 kts
2026-05-05 12:39 3.75506 -74.85654 36153 ft 466 kts
2026-05-05 12:40 3.81994 -74.85788 36152 ft 466 kts
2026-05-05 12:40 3.88486 -74.85922 36144 ft 466 kts
2026-05-05 12:41 3.94929 -74.86055 36128 ft 467 kts
2026-05-05 12:41 4.01422 -74.86189 36070 ft 467 kts
2026-05-05 12:42 4.07918 -74.86322 36016 ft 467 kts
2026-05-05 12:42 4.14417 -74.86456 35966 ft 467 kts
2026-05-05 12:43 4.20870 -74.86685 35923 ft 467 kts 358°
2026-05-05 12:43 4.27360 -74.87051 35913 ft 468 kts 358°
2026-05-05 12:44 4.33857 -74.87406 35927 ft 468 kts 358°
2026-05-05 12:44 4.40357 -74.87760 35975 ft 467 kts 358°
2026-05-05 12:45 4.46809 -74.88110 36037 ft 467 kts 358°
2026-05-05 12:45 4.53302 -74.88462 36162 ft 467 kts 358°
2026-05-05 12:46 4.59795 -74.88814 36185 ft 467 kts 358°
2026-05-05 12:46 4.66290 -74.89166 36219 ft 467 kts 358°
2026-05-05 12:47 4.72742 -74.89516 36243 ft 467 kts 358°
2026-05-05 12:47 4.79237 -74.89869 36255 ft 467 kts 358°
2026-05-05 12:48 4.85733 -74.90222 36252 ft 467 kts 358°
2026-05-05 12:48 4.92230 -74.90574 36186 ft 467 kts 358°
2026-05-05 12:49 4.98720 -74.90927 36112 ft 467 kts 358°
2026-05-05 12:49 5.05168 -74.91277 36043 ft 467 kts 358°
2026-05-05 12:50 5.11667 -74.91630 35973 ft 467 kts 358°
2026-05-05 12:50 5.18152 -74.91982 35968 ft 467 kts 358°
2026-05-05 12:51 5.24607 -74.91625 35968 ft 465 kts
2026-05-05 12:51 5.31004 -74.90915 35976 ft 465 kts
2026-05-05 12:52 5.37438 -74.90185 36031 ft 465 kts
2026-05-05 12:52 5.43875 -74.89453 36080 ft 466 kts
2026-05-05 12:53 5.50316 -74.88720 36128 ft 466 kts
2026-05-05 12:53 5.56756 -74.87987 36166 ft 466 kts
2026-05-05 12:54 5.66371 -74.86893 36156 ft 466 kts
2026-05-05 12:55 5.72813 -74.86159 36144 ft 466 kts
2026-05-05 12:55 5.79249 -74.85426 36134 ft 466 kts
2026-05-05 12:56 5.85647 -74.84698 36124 ft 466 kts
2026-05-05 12:56 5.92091 -74.83963 36115 ft 466 kts
2026-05-05 12:57 5.98535 -74.83229 36107 ft 466 kts
2026-05-05 12:57 6.05010 -74.82910 36098 ft 467 kts
2026-05-05 12:58 6.11499 -74.82609 36083 ft 467 kts
2026-05-05 12:58 6.17938 -74.82296 36068 ft 467 kts
2026-05-05 12:59 6.24424 -74.81980 36057 ft 467 kts
2026-05-05 12:59 6.30911 -74.81663 36046 ft 467 kts
2026-05-05 13:00 6.40638 -74.81189 36026 ft 467 kts
2026-05-05 13:01 6.53564 -74.80557 36008 ft 466 kts
2026-05-05 13:01 6.60046 -74.80241 35992 ft 466 kts
2026-05-05 13:02 6.66532 -74.79924 35994 ft 466 kts
2026-05-05 13:02 6.72969 -74.79609 35993 ft 466 kts
2026-05-05 13:03 6.79454 -74.79292 35984 ft 466 kts
2026-05-05 13:03 6.85932 -74.78975 35985 ft 466 kts
2026-05-05 13:04 6.92423 -74.78658 35986 ft 467 kts
2026-05-05 13:04 6.98871 -74.78343 35979 ft 467 kts
2026-05-05 13:05 7.05360 -74.78025 35975 ft 467 kts
2026-05-05 13:05 7.11857 -74.77707 35976 ft 467 kts
2026-05-05 13:06 7.18346 -74.77389 35965 ft 467 kts
2026-05-05 13:06 7.24798 -74.77073 35966 ft 467 kts
2026-05-05 13:07 7.31290 -74.76755 35959 ft 467 kts
2026-05-05 13:07 7.37786 -74.76436 35961 ft 467 kts
2026-05-05 13:08 7.44280 -74.76118 35960 ft 467 kts
2026-05-05 13:08 7.50772 -74.75799 35952 ft 467 kts
2026-05-05 13:09 7.57228 -74.75483 35958 ft 468 kts
2026-05-05 13:09 7.63728 -74.75164 35948 ft 467 kts
2026-05-05 13:10 7.69995 -74.73741 35951 ft 465 kts 27°
2026-05-05 13:10 7.75732 -74.70697 35956 ft 467 kts 28°
2026-05-05 13:11 7.81429 -74.67550 35960 ft 467 kts 29°
2026-05-05 13:11 7.87067 -74.64393 35964 ft 467 kts 29°
2026-05-05 13:12 7.92743 -74.61209 35960 ft 467 kts 29°
2026-05-05 13:12 7.98419 -74.58023 35953 ft 467 kts 29°
2026-05-05 13:13 8.04099 -74.54834 35960 ft 467 kts 29°
2026-05-05 13:13 8.09740 -74.51665 35961 ft 467 kts 29°
2026-05-05 13:14 8.15416 -74.48476 35958 ft 467 kts 29°
2026-05-05 13:14 8.21095 -74.45285 35957 ft 467 kts 29°
2026-05-05 13:15 8.26775 -74.42091 35952 ft 467 kts 29°
2026-05-05 13:15 8.32418 -74.38919 35950 ft 467 kts 29°
2026-05-05 13:16 8.38093 -74.35726 35951 ft 467 kts 29°
2026-05-05 13:16 8.43774 -74.32529 35947 ft 467 kts 29°
2026-05-05 13:17 8.49451 -74.29333 35940 ft 467 kts 29°
2026-05-05 13:17 8.55097 -74.26153 35939 ft 467 kts 29°
2026-05-05 13:18 8.60772 -74.22956 35928 ft 467 kts 28°
2026-05-05 13:18 8.66453 -74.19755 35928 ft 467 kts 28°
2026-05-05 13:19 8.72131 -74.16554 35931 ft 467 kts 28°
2026-05-05 13:19 8.77808 -74.13353 35922 ft 467 kts 28°
2026-05-05 13:20 8.83449 -74.10171 35922 ft 467 kts 28°
2026-05-05 13:20 8.89121 -74.06970 35920 ft 467 kts 28°
2026-05-05 13:21 8.94796 -74.03766 35917 ft 467 kts 28°
2026-05-05 13:21 9.00470 -74.00562 35909 ft 467 kts 28°
2026-05-05 13:22 9.06112 -73.97374 35917 ft 467 kts 28°
2026-05-05 13:22 9.11787 -73.94167 35916 ft 467 kts 28°
2026-05-05 13:23 9.17466 -73.90957 35922 ft 467 kts 28°
2026-05-05 13:23 9.23132 -73.87753 35917 ft 467 kts 28°
2026-05-05 13:24 9.28802 -73.84545 35917 ft 467 kts 28°
2026-05-05 13:24 9.34425 -73.81362 35924 ft 467 kts 28°
2026-05-05 13:25 9.40096 -73.78151 35917 ft 467 kts 28°
2026-05-05 13:25 9.45762 -73.74942 35922 ft 467 kts 28°
2026-05-05 13:26 9.51434 -73.71728 35913 ft 467 kts 28°
2026-05-05 13:26 9.57066 -73.68536 35914 ft 467 kts 28°
2026-05-05 13:27 9.62741 -73.65318 35920 ft 467 kts 28°
2026-05-05 13:27 9.68413 -73.62101 35914 ft 467 kts 28°
2026-05-05 13:28 9.74081 -73.58867 35920 ft 467 kts 29°
2026-05-05 13:28 9.79722 -73.55583 35918 ft 467 kts 29°
2026-05-05 13:29 9.85324 -73.52329 35934 ft 467 kts 29°
2026-05-05 13:29 9.90967 -73.49048 35938 ft 467 kts 29°
2026-05-05 13:30 9.96610 -73.45766 35936 ft 467 kts 29°
2026-05-05 13:30 10.02251 -73.42486 35947 ft 467 kts 29°
2026-05-05 13:31 10.07858 -73.39223 35950 ft 467 kts 29°
2026-05-05 13:31 10.13498 -73.35939 35969 ft 468 kts 29°
2026-05-05 13:32 10.19143 -73.32651 35984 ft 468 kts 29°
2026-05-05 13:32 10.24793 -73.29359 35977 ft 468 kts 29°
2026-05-05 13:33 10.30407 -73.26086 35994 ft 468 kts 29°
2026-05-05 13:33 10.36060 -73.22790 35995 ft 469 kts 29°
2026-05-05 13:34 10.41712 -73.19492 35996 ft 469 kts 29°
2026-05-05 13:34 10.47377 -73.16186 35997 ft 469 kts 29°
2026-05-05 13:35 10.53033 -73.12883 36000 ft 469 kts 29°
2026-05-05 13:35 10.58654 -73.09599 36000 ft 469 kts 29°
2026-05-05 13:36 10.64313 -73.06293 36002 ft 469 kts 29°
2026-05-05 13:36 10.69981 -73.02979 36011 ft 470 kts 29°
2026-05-05 13:37 10.75642 -72.99668 35997 ft 470 kts 29°
2026-05-05 13:37 10.81304 -72.96355 36000 ft 470 kts 28°
2026-05-05 13:38 10.86930 -72.93061 35996 ft 470 kts 29°
2026-05-05 13:38 10.92594 -72.89743 35987 ft 469 kts 28°
2026-05-05 13:39 10.98255 -72.86426 35978 ft 469 kts 28°
2026-05-05 13:39 11.03905 -72.83114 35982 ft 469 kts 28°
2026-05-05 13:40 11.09518 -72.79822 35979 ft 469 kts 28°
2026-05-05 13:40 11.15168 -72.76507 35968 ft 468 kts 28°
2026-05-05 13:41 11.20808 -72.73197 35961 ft 468 kts 28°
2026-05-05 13:41 11.26447 -72.69885 35965 ft 468 kts 28°
2026-05-05 13:42 11.32086 -72.66571 35958 ft 468 kts 28°
2026-05-05 13:42 11.37681 -72.63283 35959 ft 467 kts 28°
2026-05-05 13:43 11.43314 -72.59970 35959 ft 467 kts 28°
2026-05-05 13:43 11.48944 -72.56658 35962 ft 467 kts 28°
2026-05-05 13:44 11.54569 -72.53348 35963 ft 467 kts 28°
2026-05-05 13:44 11.60158 -72.50056 35956 ft 467 kts 28°
2026-05-05 13:45 11.65777 -72.46747 35961 ft 467 kts 28°
2026-05-05 13:45 11.71502 -72.43636 35961 ft 466 kts 25°
2026-05-05 13:46 11.77271 -72.40591 35963 ft 466 kts 26°
2026-05-05 13:46 11.83029 -72.37537 35960 ft 467 kts 26°
2026-05-05 13:47 11.88754 -72.34500 35964 ft 467 kts 25°
2026-05-05 13:47 11.94518 -72.31441 35966 ft 467 kts 25°
2026-05-05 13:48 12.00283 -72.28379 35958 ft 467 kts 25°
2026-05-05 13:48 12.06015 -72.25333 35960 ft 467 kts 25°
2026-05-05 13:49 12.11783 -72.22268 35966 ft 467 kts 25°
2026-05-05 13:49 12.17553 -72.19199 35966 ft 468 kts 25°
2026-05-05 13:50 12.23326 -72.16129 35964 ft 468 kts 26°
2026-05-05 13:50 12.29101 -72.13054 35971 ft 468 kts 25°
2026-05-05 13:51 12.34836 -72.10000 35967 ft 468 kts 25°
2026-05-05 13:51 12.40613 -72.06921 35963 ft 468 kts 25°
2026-05-05 13:52 12.46394 -72.03838 35971 ft 469 kts 25°
2026-05-05 13:52 12.52178 -72.00753 35975 ft 469 kts 25°
2026-05-05 13:53 12.57924 -71.97687 35975 ft 469 kts 25°
2026-05-05 13:53 12.63709 -71.94598 35973 ft 469 kts 25°
2026-05-05 13:54 12.69493 -71.91507 35970 ft 469 kts 25°
2026-05-05 13:54 12.75278 -71.88416 35973 ft 469 kts 25°
2026-05-05 13:55 12.81032 -71.85352 35978 ft 469 kts 22°
2026-05-05 13:55 12.87144 -71.83145 35974 ft 466 kts 16°
2026-05-05 13:56 12.93302 -71.81036 35980 ft 466 kts 15°
2026-05-05 13:56 12.99460 -71.78936 35978 ft 466 kts 16°
2026-05-05 13:57 13.05618 -71.76835 35973 ft 466 kts 15°
2026-05-05 13:57 13.11734 -71.74748 35978 ft 467 kts 15°
2026-05-05 13:58 13.17898 -71.72642 35975 ft 467 kts 15°
2026-05-05 13:58 13.24056 -71.70538 35987 ft 467 kts 15°
2026-05-05 13:59 13.33300 -71.67377 35987 ft 467 kts 15°
2026-05-05 14:00 13.41503 -71.64570 35985 ft 467 kts 15°
2026-05-05 14:00 13.48659 -71.62119 35986 ft 467 kts 15°
2026-05-05 14:01 13.54824 -71.60007 35993 ft 467 kts 15°
2026-05-05 14:01 13.60988 -71.57894 35987 ft 467 kts 15°
2026-05-05 14:02 13.67115 -71.55792 36000 ft 467 kts 15°
2026-05-05 14:02 13.73278 -71.53677 35998 ft 467 kts 15°
2026-05-05 14:03 13.79446 -71.51559 35990 ft 467 kts 15°
2026-05-05 14:03 13.85618 -71.49439 35998 ft 468 kts 15°
2026-05-05 14:04 13.91793 -71.47316 35996 ft 468 kts 15°
2026-05-05 14:04 13.97969 -71.45192 36000 ft 468 kts 15°
2026-05-05 14:05 14.04103 -71.43081 36004 ft 468 kts 15°
2026-05-05 14:05 14.10288 -71.40951 35999 ft 468 kts 15°
2026-05-05 14:06 14.16471 -71.38821 36006 ft 469 kts 15°
2026-05-05 14:06 14.22656 -71.36689 36004 ft 469 kts 15°
2026-05-05 14:07 14.28797 -71.34570 36004 ft 469 kts 15°
2026-05-05 14:07 14.34988 -71.32434 36008 ft 469 kts 15°
2026-05-05 14:08 14.41173 -71.30296 36008 ft 469 kts 15°
2026-05-05 14:08 14.47367 -71.28157 36012 ft 469 kts 15°
2026-05-05 14:09 14.53558 -71.26017 36014 ft 469 kts 15°
2026-05-05 14:09 14.59705 -71.23890 36014 ft 469 kts 15°
2026-05-05 14:10 14.65894 -71.21747 36016 ft 469 kts 15°
2026-05-05 14:10 14.72085 -71.19604 36015 ft 469 kts 15°
2026-05-05 14:11 14.78279 -71.17456 36016 ft 469 kts 15°
2026-05-05 14:11 14.84436 -71.15321 36019 ft 470 kts 15°
2026-05-05 14:12 14.90632 -71.13171 36019 ft 470 kts 15°
2026-05-05 14:12 14.96828 -71.11021 36018 ft 470 kts 15°
2026-05-05 14:13 15.03036 -71.08863 36020 ft 470 kts 15°
2026-05-05 14:13 15.08191 -71.07071 36025 ft 471 kts 15°
2026-05-05 14:14 15.15410 -71.04561 36023 ft 471 kts 15°
2026-05-05 14:14 15.21630 -71.02395 36025 ft 472 kts 15°
2026-05-05 14:15 15.27851 -71.00229 36026 ft 472 kts 16°
2026-05-05 14:15 15.33023 -70.98426 36024 ft 472 kts 15°
2026-05-05 14:16 15.40255 -70.95905 36028 ft 472 kts 15°
2026-05-05 14:16 15.46480 -70.93733 36026 ft 472 kts 15°
2026-05-05 14:17 15.51659 -70.91924 36029 ft 472 kts 15°
2026-05-05 14:17 15.57886 -70.89749 36032 ft 473 kts 15°
2026-05-05 14:18 15.65131 -70.87217 36035 ft 473 kts 15°
2026-05-05 14:18 15.70351 -70.85391 36033 ft 473 kts 15°
2026-05-05 14:19 15.76543 -70.83223 36034 ft 473 kts 15°
2026-05-05 14:19 15.82775 -70.81041 36037 ft 473 kts 15°
2026-05-05 14:20 15.89015 -70.78854 36037 ft 473 kts 15°
2026-05-05 14:20 15.95248 -70.76669 36036 ft 473 kts 15°
2026-05-05 14:21 16.01184 -70.73845 36037 ft 478 kts 35°
2026-05-05 14:21 16.06472 -70.69598 36039 ft 481 kts 35°
2026-05-05 14:22 16.11732 -70.65285 36044 ft 482 kts 36°
2026-05-05 14:22 16.16975 -70.60944 36043 ft 482 kts 36°
2026-05-05 14:23 16.22186 -70.56623 36044 ft 482 kts 36°
2026-05-05 14:23 16.27431 -70.52270 36043 ft 482 kts 36°
2026-05-05 14:24 16.32677 -70.47914 36049 ft 483 kts 36°
2026-05-05 14:24 16.37926 -70.43552 36049 ft 483 kts 36°
2026-05-05 14:25 16.43179 -70.39183 36048 ft 483 kts 36°
2026-05-05 14:25 16.48400 -70.34838 36053 ft 484 kts 36°
2026-05-05 14:26 16.53656 -70.30461 36056 ft 484 kts 36°
2026-05-05 14:26 16.58914 -70.26080 36056 ft 484 kts 36°
2026-05-05 14:27 16.64175 -70.21692 36058 ft 484 kts 36°
2026-05-05 14:27 16.69440 -70.17298 36058 ft 485 kts 36°
2026-05-05 14:28 16.74670 -70.12929 36056 ft 485 kts 36°
2026-05-05 14:28 16.79933 -70.08531 36059 ft 485 kts 36°
2026-05-05 14:29 16.85202 -70.04123 36063 ft 485 kts 36°
2026-05-05 14:29 16.90476 -69.99709 36063 ft 486 kts 36°
2026-05-05 14:30 16.92815 -69.97750 36062 ft 486 kts 36°